Regional Weather Roundup
Issued by NWS

Home | Current Version | Previous Version | Text Only | Print | Product List | Glossary Off
Versions: 1 2 3 4 5 6 7 8 9 10 11 12 13 14 15 16 17 18 19 20 21 22 23 24 25 26 27 28 29 30 31 32 33 34 35 36 37 38 39 40 41 42 43 44 45 46 47 48 49 50

000
ASUS43 KMKX 112000
RWRWI

WISCONSIN REGIONAL WEATHER ROUNDUP
NATIONAL WEATHER SERVICE MILWAUKEE/SULLIVAN WI
300 PM CDT FRI JUL 11 2014

NOTE: "FAIR" INDICATES FEW OR NO CLOUDS BELOW 12,000 FEET WITH NO
SIGNIFICANT WEATHER AND/OR OBSTRUCTIONS TO VISIBILITY.

WIZ001-002-006>008-014>016-023>028-112100-
NORTHWEST WISCONSIN

CITY           SKY/WX    TMP DP  RH WIND       PRES   REMARKS
SUPERIOR ARPT  CLOUDY    72  66  83 SW10      29.92S
ASHLAND        CLOUDY    73  65  75 S15G23    29.95R
HAYWARD        CLOUDY    74  64  71 S18       29.98F
SIREN          CLOUDY    74  65  72 SW7       29.96S
RICE LAKE      CLOUDY    75  63  64 S14       30.02S
LADYSMITH      PTSUNNY   75  62  64 S14G24    30.04S
EAU CLAIRE     NOT AVBL
MENOMONIE      CLOUDY    74  64  68 S9        30.01F
NEW RICHMOND   CLOUDY    76  64  67 SW14      29.99S
OSCEOLA        CLOUDY    77  65  67 S13       30.00R
$$

WIZ003>005-009-010-017-018-112100-
NORTH CENTRAL WISCONSIN

CITY           SKY/WX    TMP DP  RH WIND       PRES   REMARKS
WOODRUFF       CLOUDY    74  61  62 SW10G23   30.03S
RHINELANDER    CLOUDY    74  59  59 S12       30.06S
EAGLE RIVER    CLOUDY    72  56  57 SW15G22   30.04S
LAND O LAKES   CLOUDY    74  57  54 S12G25    30.03S
PHILLIPS       CLOUDY    72  62  70 S10       30.02S
TOMAHAWK       CLOUDY    75  59  57 S6        30.05F
MEDFORD        CLOUDY    72  59  62 S13G22    30.05F
MERRILL        MOSUNNY   76  60  57 S13G22    30.05F
$$

WIZ029-030-035-036-043>047-112100-
CENTRAL WISCONSIN

CITY           SKY/WX    TMP DP  RH WIND       PRES   REMARKS
WAUSAU         SUNNY     77  56  48 S20       30.05F
MOSINEE        CLOUDY    73  57  56 S14G22    30.08F
MARSHFIELD     MOSUNNY   75  59  57 SW20      30.07R
STEVENS POINT  PTSUNNY   75  53  47 S10G20    30.08F
WAUPACA        MOSUNNY   81  55  40 S13G18    30.08F HX  81
WAUTOMA        NOT AVBL
WISC RAPIDS    MOSUNNY   78  55  44 S12       30.09R
CAMP DOUGLAS   NOT AVBL
$$

WIZ011>013-019>022-031-037>040-048>050-112100-
NORTHEAST WISCONSIN

CITY           SKY/WX    TMP DP  RH WIND       PRES   REMARKS
ANTIGO         PTSUNNY   73  59  61 S21G29    30.08F
STURGEON BAY   PTSUNNY   73  61  64 S12       30.10F
GREEN BAY      MOSUNNY   79  57  46 S16G25    30.09F HX  80
MANITOWOC      NOT AVBL
APPLETON       PTSUNNY   77  55  47 SW17G23   30.11F
CLINTONVILLE   MOSUNNY   79  54  41 S20G25    30.08F
OSHKOSH        PTSUNNY   78  56  46 S13G25    30.10F
$$

WIZ032>034-041-042-053>061-112100-
SOUTHWEST WISCONSIN

CITY           SKY/WX    TMP DP  RH WIND       PRES   REMARKS
LA CROSSE      CLOUDY    73  61  65 S13       30.03R
SPARTA         CLOUDY    72  57  60 S6        30.08R
VIROQUA        MOCLDY    70  60  70 S13G18    30.07S
BOSCOBEL       CLOUDY    76  59  55 SW10G17   30.09R
PRAIRIE DU CHI CLOUDY    74  59  59 SE5       30.08R
PLATTEVILLE    FAIR      73  62  68 SE13      30.10R
$$

WIZ056-057-062-063-064-067-068-112100-
SOUTH CENTRAL WISCONSIN

CITY           SKY/WX    TMP DP  RH WIND       PRES   REMARKS
BARABOO/DELLS  CLOUDY    71  55  58 S14G24    30.07F
LONE ROCK      NOT AVBL
WATERTOWN      LGT RAIN  72  60  66 S6        30.12F
MADISON        CLOUDY    73  57  57 S20       30.08F
MIDDLETON      FAIR      73  55  53 S13G18    30.09F
MONROE         CLOUDY    72  57  60 SE9       30.11F
JANESVILLE     CLOUDY    75  55  50 SE12      30.11F
$$

WIZ051-052-058>065-066-070>072-112100-
SOUTHEAST WISCONSIN

CITY           SKY/WX    TMP DP  RH WIND       PRES   REMARKS
MILWAUKEE      CLOUDY    75  52  44 S14       30.14F
WAUKESHA       CLOUDY    73  54  49 S12       30.15F
MILWAUKEE/TIMM NOT AVBL
RACINE         PTSUNNY   73  55  53 S9        30.17F
BURLINGTON     PTSUNNY   72  58  61 SW7       30.16F
KENOSHA        CLOUDY    74  53  48 SE10      30.16F
FOND DU LAC    PTSUNNY   78  57  48 S16       30.10F
SHEBOYGAN      CLOUDY    76  59  55 S14       30.13F
WEST BEND      PTSUNNY   75  52  43 S13       30.13F
JUNEAU         DRIZZLE   73  43  33 S12       30.13F
$$

LSZ147-162-112100-
LAKE SUPERIOR

STATION/POSITION TIME  TEMP    WIND        PRES    WAVE
                       AIR SEA DIR/SP/G            HT/PER
                 (UTC) (F)     (DEG/KT/KT) (MB)    (FT/S)
W MID LAKE BUOY  1850   47 38  170/ 10/ 12 1013.7F   1/ 4
PORT WING        1940   72     210/  7/ 12 1013.2S
SAXON HARBOR     1906          200/ 11/ 26 1013.5
$$

LMZ867-665-643>646-112100-
LAKE MICHIGAN

STATION/POSITION TIME  TEMP    WIND        PRES    WAVE
                       AIR SEA DIR/SP/G            HT/PER
                 (UTC) (F)     (DEG/KT/KT) (MB)    (FT/S)
N MID LAKE BUOY  1850   58 53  200/ 16/ 19 1019.6F   3/ 4
NORTHPORT PIER   1900   65     160/  8/ 12 1019.6F
KEWAUNEE LAKESHO 1900   54     180/ 12/ 13 1021.0F
SHEBOYGAN LAKESH 1900   65     180/ 18/ 18 1020.7F
PORT WASHINGTON  1900   66     200/  7/ 12 1021.3F
MILWAUKEE LAKESH 1900   63     150/ 15/ 17   N/A
S MID LAKE BUOY  1850   63 60  170/  4/  4 1022.4F   1
KENOSHA   LAKESH 1900   67     160/  8/ 10   N/A
$$

TC  - TEMPERATURE IN CELSIUS
VSB - VISIBILITY IN STATUTE MILES
WCI - WIND CHILL INDEX
HX  - HEAT INDEX




USA.gov is the U.S. government's official web portal to all federal, state and local government web resources and services.